Flight Track Log - Related Links

Times and Time Zones

All times are in EDT time to prevent confusion due to time zone crossing. See the SKW6328 flight status page for this flight to view local times or setup timezone preferences in your user account.

Time Position Orientation Groundspeed Altitude Reporting Facility
EDT Latitude Longitude Course Direction KTS MPH feet Rate Location/Type
Wed 01:22:01 PM 37.6583 -122.3658 133° Southeast 191 220 2,100  Level Oakland Center
Wed 01:23:03 PM 37.7047 -122.4019 328° Northwest 242 278 4,500 2,390 Climbing Oakland Center
Wed 01:24:04 PM 37.6553 -122.4631 224° Southwest 275 316 7,000 2,537 Climbing Oakland Center
Wed 01:25:06 PM 37.5731 -122.4386 167° South 307 353 9,700 2,585 Climbing Oakland Center
Wed 01:26:00 PM 37.3010 -122.1678 136° Southeast  Level FlightAware Approximate
Wed 01:26:07 PM 37.4986 -122.3839 150° Southeast 310 357 12,300  Level Oakland Center
Wed 01:27:00 PM 37.2341 -122.0621 133° Southeast  Level FlightAware Approximate
Wed 01:27:09 PM 37.4642 -122.2806 113° Southeast 327 376 14,300  Level Oakland Center
Wed 01:28:10 PM 37.4314 -122.1322 106° East 360 414 16,300 2,146 Climbing Oakland Center
Wed 01:29:12 PM 37.4028 -122.0036 106° East 379 436 18,700 1,951 Climbing Oakland Center
Wed 01:30:13 PM 37.3722 -121.8742 107° East 383 441 20,300 1,659 Climbing Oakland Center
Wed 01:31:15 PM 37.3417 -121.7417 106° East 399 459 22,100 1,659 Climbing Oakland Center
Wed 01:32:16 PM 37.3100 -121.6047 106° East 408 470 23,700 1,512 Climbing Oakland Center
Wed 01:33:18 PM 37.2781 -121.4636 106° East 417 480 25,200 1,561 Climbing Oakland Center
Wed 01:34:19 PM 37.2381 -121.2908 106° East 426 490 26,900 1,415 Climbing Oakland Center
Wed 01:35:21 PM 37.2025 -121.1475 107° East 429 494 28,100 1,171 Climbing Oakland Center
Wed 01:36:22 PM 37.1678 -120.9989 106° East 440 506 29,300 1,073 Climbing Oakland Center
Wed 01:37:24 PM 37.1508 -120.8478 98° East 442 509 30,300 927 Climbing Oakland Center
Wed 01:38:25 PM 37.1658 -120.6947 83° East 444 511 31,200 927 Climbing Oakland Center
Wed 01:39:27 PM 37.1800 -120.5408 83° East 444 511 32,200 878 Climbing Oakland Center
Wed 01:40:28 PM 37.1931 -120.3883 84° East 444 511 33,000 390 Climbing Oakland Center
Wed 01:41:30 PM 37.2078 -120.2325 83° East 446 513 33,000  Level Oakland Center
Wed 01:42:31 PM 37.2239 -120.0456 84° East 449 517 33,000  Level Oakland Center
Wed 01:43:33 PM 37.2372 -119.8864 84° East 455 524 33,000 -49 Level Oakland Center
Wed 01:44:34 PM 37.2500 -119.7456 83° East 460 529 32,900  Descending Oakland Center
Wed 01:45:36 PM 37.2653 -119.5533 84° East 461 531 33,000 49 Climbing Oakland Center
Wed 01:46:37 PM 37.2781 -119.3939 84° East 461 531 33,000  Level Oakland Center
Wed 01:47:39 PM 37.2908 -119.2344 84° East 461 531 33,000  Level Oakland Center
Wed 01:48:40 PM 37.3031 -119.0750 84° East 461 531 33,000  Level Oakland Center
Wed 01:49:42 PM 37.3156 -118.9167 84° East 459 528 33,000  Level Oakland Center
Wed 01:50:43 PM 37.3294 -118.7442 84° East 459 528 33,000  Level Oakland Center
Wed 01:51:45 PM 37.3411 -118.5842 85° East 459 528 33,000  Level Oakland Center
Wed 01:52:46 PM 37.3531 -118.4244 85° East 459 528 33,000  Level Oakland Center
Wed 01:53:48 PM 37.3650 -118.2656 85° East 459 528 33,000  Level Oakland Center
Wed 01:54:49 PM 37.3753 -118.1064 85° East 458 527 33,000  Level Oakland Center
Wed 01:55:51 PM 37.3864 -117.9461 85° East 458 527 33,000  Level Oakland Center
Wed 01:56:52 PM 37.3994 -117.7550 85° East 459 528 33,000  Level Oakland Center
Wed 01:57:54 PM 37.4103 -117.5958 85° East 458 527 33,000  Level Oakland Center
Wed 01:58:55 PM 37.4153 -117.4347 88° East 460 529 33,000  Level Oakland Center
Wed 01:59:57 PM 37.3819 -117.2733 105° East 489 563 33,000  Level Oakland Center
Wed 02:00:58 PM 37.3000 -117.1317 126° Southeast 511 588 33,000  Level Oakland Center
Wed 02:02:00 PM 37.1867 -117.0214 142° Southeast 520 598 33,000  Level Oakland Center
Wed 02:03:01 PM 37.0750 -116.9117 142° Southeast 512 589 33,000  Level Oakland Center
Wed 02:04:03 PM 36.9672 -116.7981 140° Southeast 506 582 33,000  Level Oakland Center
Wed 02:05:04 PM 36.8358 -116.6625 140° Southeast 507 583 33,000 -1,317 Level Oakland Center
Wed 02:06:06 PM 36.7269 -116.5464 139° Southeast 509 586 30,300 -2,855 Descending Oakland Center
Wed 02:07:08 PM 36.6197 -116.4328 140° Southeast 509 586 27,100 -3,083 Descending Oakland Center
Wed 02:08:30 PM 36.4903 -116.2931 139° Southeast 488 562 22,900 -3,125 Descending Los Angeles Center
Wed 02:09:32 PM 36.3906 -116.1625 133° Southeast 466 536 19,600 -3,048 Descending Los Angeles Center
Wed 02:10:34 PM 36.3044 -116.0417 131° Southeast 453 521 16,600 -1,742 Descending Los Angeles Center
Wed 02:11:36 PM 36.2253 -115.9322 132° Southeast 388 447 16,000 -288 Descending Los Angeles Center
Wed 02:12:39 PM 36.1792 -115.8347 120° Southeast 336 387 16,000 -629 Level Los Angeles Center
Wed 02:13:40 PM 36.1411 -115.7150 111° Southeast 346 398 14,700 -1,512 Descending Los Angeles Center
Wed 02:14:42 PM 36.1011 -115.5925 112° Southeast 384 442 12,900 -1,750 Descending Los Angeles Center
Wed 02:14:52 PM 36.0944 -115.5744 115° Southeast 393 452 12,600 -1,754 Descending Los Angeles Center
Wed 02:15:47 PM 36.0594 -115.4608 111° Southeast 391 450 11,000 -1,096 Descending Los Angeles Center
Wed 02:16:47 PM 36.0286 -115.3461 108° East 337 388 10,500 -885 Descending Los Angeles Center
Wed 02:17:49 PM 36.0214 -115.2392 95° East 286 329 9,200 -780 Descending Los Angeles Center
Wed 02:18:50 PM 36.0164 -115.1614 95° East 206 237 8,900 -581 Descending Los Angeles Center
Wed 02:19:53 PM 36.0114 -115.0897 95° East 198 228 8,000 -590 Descending Los Angeles Center
Wed 02:20:52 PM 36.0169 -115.0256 84° East 203 234 7,700 -864 Descending Los Angeles Center
Wed 02:21:58 PM 36.0700 -114.9947 25° Northeast 196 226 6,200 -1,219 Descending Los Angeles Center
Wed 02:23:00 PM 36.1156 -115.0219 334° Northwest 194 223 5,100 -1,033 Descending Los Angeles Center
Wed 02:24:00 PM 36.1550 -115.0650 319° Northwest 173 199 4,100 -678 Descending Los Angeles Center
Wed 02:24:55 PM 36.1653 -115.1122 285° West 147 169 3,800 -621 Descending Los Angeles Center
Wed 02:25:56 PM 36.1303 -115.1397 212° Southwest 146 168 2,900 -930 Descending Los Angeles Center
Wed 02:26:06 PM 36.1250 -115.1414 194° South 147 169 2,700 -667 Descending Los Angeles Center
Wed 02:27:08 PM 36.0878 -115.1622 204° Southwest 146 168 2,100 -581 Descending Los Angeles Center

Login

Don't have an account? Register now (free) for customized features, flight alerts, and more!